When you browse on this site, cookies collect data to enhance your experience and personalize the content and advertising you see.
Visit our Privacy Policy to learn more. By continuing to use the site, you agree to this use of cookies and data.
  • In Romania
  • List of Countries
  • For 7 days
  • Water Temperature
  • Weather Map
  • Weather Widgets
  • user-avatar
    Login

    Hourly Weather Eisenstadt

    Today, 11 December, Wednesday

    Time Temperature Precipitation Wind Pressure Humidity
    00:00 -2°C° 0 mm 2 mps 727 mmHg 83%
    01:00 -2°C° 0 mm 2 mps 727 mmHg 81%
    02:00 -2°C° 0 mm 2 mps 726 mmHg 81%
    03:00 -2°C° 0 mm 2 mps 726 mmHg 81%
    04:00 -2°C° 0 mm 2 mps 725 mmHg 81%
    05:00 0°C° 0 mm 1 mps 725 mmHg 80%
    06:00 -1°C° 0 mm 1 mps 725 mmHg 79%
    07:00 -1°C° 0 mm 1 mps 725 mmHg 77%
    08:00 0°C° 0 mm 1 mps 724 mmHg 71%
    09:00 +1°C° 0 mm 1 mps 724 mmHg 65%
    10:00 +2°C° 0 mm 1 mps 724 mmHg 58%
    11:00 +2°C° 0 mm 1 mps 723 mmHg 55%
    12:00 +2°C° 0 mm 2 mps 722 mmHg 52%
    13:00 +2°C° 0 mm 2 mps 722 mmHg 49%
    14:00 +1°C° 0 mm 2 mps 721 mmHg 55%
    15:00 -1°C° 0 mm 2 mps 720 mmHg 61%
    16:00 -2°C° 0 mm 2 mps 719 mmHg 67%
    17:00 -2°C° 0 mm 3 mps 719 mmHg 67%
    18:00 -4°C° 0 mm 3 mps 719 mmHg 66%
    19:00 -4°C° 0 mm 3 mps 719 mmHg 66%
    20:00 -4°C° 0 mm 3 mps 718 mmHg 63%
    21:00 -4°C° 0 mm 3 mps 718 mmHg 60%
    22:00 -4°C° 0 mm 4 mps 718 mmHg 57%
    23:00 -4°C° 0 mm 3 mps 717 mmHg 59%

    Tomorrow, 12 December, Thursday

    Time Temperature Precipitation Wind Pressure Humidity
    00:00 -3°C° 0 mm 2 mps 717 mmHg 61%
    01:00 -3°C° 0 mm 2 mps 717 mmHg 63%
    02:00 -3°C° 0 mm 2 mps 716 mmHg 64%
    03:00 -1°C° 0 mm 1 mps 716 mmHg 66%
    04:00 -1°C° 0 mm 1 mps 715 mmHg 68%
    05:00 -1°C° 0 mm 1 mps 715 mmHg 69%
    06:00 -1°C° 0 mm 1 mps 715 mmHg 70%
    07:00 -1°C° 0 mm 1 mps 715 mmHg 71%
    08:00 0°C° 0 mm 1 mps 715 mmHg 72%
    09:00 0°C° 0 mm 0 mps 715 mmHg 73%
    10:00 +1°C° 0 mm 0 mps 715 mmHg 73%
    11:00 +1°C° 0.1 mm 0 mps 715 mmHg 76%
    12:00 +2°C° 0.1 mm 1 mps 715 mmHg 79%
    13:00 +2°C° 0.1 mm 1 mps 715 mmHg 81%
    14:00 +2°C° 0.3 mm 1 mps 714 mmHg 87%
    15:00 +1°C° 0.3 mm 1 mps 714 mmHg 92%
    16:00 +1°C° 0.3 mm 1 mps 713 mmHg 98%
    17:00 +1°C° 0.4 mm 1 mps 713 mmHg 98%
    18:00 +1°C° 0.4 mm 1 mps 713 mmHg 98%
    19:00 0°C° 0.4 mm 0 mps 713 mmHg 98%
    20:00 0°C° 0.1 mm 0 mps 712 mmHg 98%
    21:00 0°C° 0.1 mm 0 mps 712 mmHg 98%
    22:00 0°C° 0.1 mm 0 mps 711 mmHg 98%
    23:00 0°C° 0 mm 0 mps 711 mmHg 98%

    Day after tomorrow, 13 December, Friday

    Time Temperature Precipitation Wind Pressure Humidity
    00:00 +1°C° 0 mm 1 mps 710 mmHg 97%
    01:00 0°C° 0 mm 1 mps 710 mmHg 97%
    02:00 0°C° 0 mm 1 mps 709 mmHg 96%
    03:00 -2°C° 0 mm 2 mps 708 mmHg 96%
    04:00 -2°C° 0 mm 2 mps 707 mmHg 96%
    05:00 -2°C° 0 mm 3 mps 706 mmHg 94%
    06:00 -3°C° 0 mm 4 mps 706 mmHg 93%
    07:00 -2°C° 0 mm 5 mps 705 mmHg 92%
    08:00 -2°C° 0 mm 5 mps 704 mmHg 90%
    09:00 -3°C° 0 mm 6 mps 704 mmHg 89%
    10:00 -3°C° 0 mm 6 mps 703 mmHg 87%
    11:00 -3°C° 0 mm 6 mps 702 mmHg 85%
    12:00 -2°C° 0 mm 6 mps 702 mmHg 82%
    13:00 -2°C° 0 mm 6 mps 702 mmHg 80%
    14:00 -1°C° 0 mm 5 mps 702 mmHg 81%
    15:00 -1°C° 0 mm 3 mps 702 mmHg 83%
    16:00 -1°C° 0 mm 2 mps 702 mmHg 85%
    17:00 +1°C° 0.1 mm 1 mps 703 mmHg 86%
    18:00 +1°C° 0.1 mm 1 mps 704 mmHg 88%
    19:00 +1°C° 0.1 mm 1 mps 705 mmHg 90%
    20:00 +1°C° 0.1 mm 1 mps 705 mmHg 91%
    21:00 +1°C° 0.1 mm 1 mps 706 mmHg 92%
    22:00 +1°C° 0.1 mm 1 mps 706 mmHg 93%
    23:00 +1°C° 0 mm 1 mps 707 mmHg 92%

    14 December, Saturday

    Time Temperature Precipitation Wind Pressure Humidity
    00:00 +1°C° 0 mm 1 mps 707 mmHg 91%
    01:00 +1°C° 0 mm 1 mps 708 mmHg 91%
    02:00 -1°C° 0 mm 2 mps 708 mmHg 89%
    03:00 -1°C° 0 mm 2 mps 709 mmHg 88%
    04:00 -1°C° 0 mm 2 mps 709 mmHg 87%
    05:00 -1°C° 0 mm 2 mps 710 mmHg 86%
    06:00 -1°C° 0 mm 2 mps 711 mmHg 86%
    07:00 -1°C° 0 mm 2 mps 711 mmHg 86%
    08:00 +1°C° 0 mm 2 mps 712 mmHg 82%
    09:00 +2°C° 0 mm 1 mps 713 mmHg 78%
    10:00 +3°C° 0 mm 1 mps 713 mmHg 74%
    11:00 +3°C° 0 mm 2 mps 714 mmHg 73%
    12:00 +3°C° 0 mm 3 mps 714 mmHg 72%
    13:00 +3°C° 0 mm 3 mps 714 mmHg 71%
    14:00 +2°C° 0 mm 3 mps 714 mmHg 74%
    15:00 +2°C° 0 mm 3 mps 715 mmHg 77%
    16:00 +1°C° 0 mm 3 mps 715 mmHg 80%
    17:00 +1°C° 0 mm 3 mps 715 mmHg 80%
    18:00 +1°C° 0 mm 3 mps 716 mmHg 79%
    19:00 +1°C° 0 mm 3 mps 716 mmHg 78%
    20:00 +1°C° 0 mm 3 mps 717 mmHg 77%
    21:00 +1°C° 0 mm 3 mps 717 mmHg 76%
    22:00 +1°C° 0 mm 3 mps 718 mmHg 75%
    23:00 +1°C° 0 mm 3 mps 718 mmHg 73%

    15 December, Sunday

    Time Temperature Precipitation Wind Pressure Humidity
    00:00 +1°C° 0 mm 3 mps 718 mmHg 72%
    01:00 +1°C° 0 mm 3 mps 718 mmHg 70%
    02:00 +1°C° 0 mm 3 mps 718 mmHg 70%
    03:00 +2°C° 0 mm 2 mps 718 mmHg 70%
    04:00 +1°C° 0 mm 2 mps 718 mmHg 71%
    05:00 +1°C° 0 mm 2 mps 718 mmHg 70%
    06:00 +1°C° 0 mm 2 mps 718 mmHg 70%
    07:00 +1°C° 0 mm 2 mps 718 mmHg 70%
    08:00 +2°C° 0 mm 2 mps 718 mmHg 69%
    09:00 +2°C° 0 mm 2 mps 719 mmHg 67%
    10:00 +2°C° 0 mm 3 mps 719 mmHg 66%
    11:00 +4°C° 0 mm 2 mps 719 mmHg 66%
    12:00 +4°C° 0 mm 2 mps 719 mmHg 66%
    13:00 +5°C° 0 mm 2 mps 719 mmHg 67%
    14:00 +4°C° 0 mm 2 mps 720 mmHg 69%
    15:00 +4°C° 0 mm 2 mps 720 mmHg 71%
    16:00 +3°C° 0 mm 2 mps 720 mmHg 74%
    17:00 +4°C° 0 mm 1 mps 721 mmHg 73%
    18:00 +4°C° 0 mm 1 mps 721 mmHg 72%
    19:00 +4°C° 0 mm 1 mps 722 mmHg 71%
    20:00 +4°C° 0 mm 1 mps 723 mmHg 72%
    21:00 +3°C° 0 mm 0 mps 723 mmHg 73%
    22:00 +3°C° 0 mm 0 mps 724 mmHg 74%
    23:00 +3°C° 0 mm 0 mps 724 mmHg 74%

    16 December, Monday

    Time Temperature Precipitation Wind Pressure Humidity
    00:00 +4°C° 0 mm 1 mps 724 mmHg 74%
    01:00 +4°C° 0 mm 1 mps 724 mmHg 74%
    02:00 +4°C° 0 mm 1 mps 724 mmHg 74%
    03:00 +4°C° 0 mm 1 mps 724 mmHg 74%
    04:00 +5°C° 0 mm 1 mps 724 mmHg 74%
    05:00 +4°C° 0 mm 1 mps 724 mmHg 78%
    06:00 +3°C° 0 mm 1 mps 724 mmHg 81%
    07:00 +2°C° 0 mm 1 mps 723 mmHg 85%
    08:00 +3°C° 0 mm 1 mps 723 mmHg 82%
    09:00 +2°C° 0 mm 2 mps 723 mmHg 79%
    10:00 +3°C° 0 mm 2 mps 724 mmHg 77%
    11:00 +4°C° 0 mm 2 mps 723 mmHg 77%
    12:00 +3°C° 0 mm 3 mps 723 mmHg 76%
    13:00 +4°C° 0 mm 3 mps 722 mmHg 76%
    14:00 +3°C° 0 mm 3 mps 722 mmHg 79%
    15:00 +4°C° 0 mm 2 mps 722 mmHg 82%
    16:00 +3°C° 0 mm 2 mps 721 mmHg 84%
    17:00 +3°C° 0 mm 2 mps 721 mmHg 85%
    18:00 +3°C° 0 mm 2 mps 721 mmHg 86%
    19:00 +3°C° 0 mm 2 mps 721 mmHg 87%
    20:00 +3°C° 0 mm 2 mps 721 mmHg 87%
    21:00 +3°C° 0 mm 2 mps 721 mmHg 88%
    22:00 +4°C° 0 mm 1 mps 721 mmHg 88%
    23:00 +4°C° 0 mm 1 mps 721 mmHg 88%
    Show more